#timestamp,LO_Frequency,Hit,StdDev 
1543276815.2,286046997.7,N
1543276835.0,286046996.1,N
1543276836.0,286046996.1,N
1543276855.8,286046993.6,N
1543276875.6,286046993.5,N
1543276895.5,286046992.4,N
1543276915.3,286046999.2,N
1543276935.1,286047000.3,N
1543276955.9,286047002.6,N
1543276975.7,286047000.2,N
1543276995.6,286046999.7,N
1543277015.4,286046996.6,N
1543277035.2,286046997.3,N
1543277055.1,286046996.1,N
1543277056.0,286046996.1,N
1543277075.8,286047000.3,N
1543277095.6,286047005.9,N
1543277115.5,286047007.7,N
1543277135.3,286047011.9,N
1543277155.2,286047012.4,N
1543277175.9,286047016.3,N
1543277195.7,286047018.7,Y
1543277215.6,286047015.5,P
1543277235.4,286047011.9,N
1543277255.3,286047010.3,N
1543277275.1,286047008.8,N
1543277276.0,286047008.8,N
1543277295.8,286047007.3,N
1543277315.7,286047004.9,N
1543277335.5,286047004.0,N
1543277355.3,286047001.9,N
1543277375.2,286047000.8,N
1543277395.0,286046998.9,N
1543277395.9,286046998.9,N
1543277415.8,286046996.6,N
1543277435.6,286046998.9,N
1543277455.4,286047001.2,N
1543277475.3,286047001.2,N
1543277495.1,286046999.8,N
1543277515.9,286047002.6,N
1543277535.7,286046999.3,N
1543277555.5,286046996.5,N
1543277575.4,286046999.1,N
1543277595.2,286046997.2,N
1543277615.0,286047002.2,N
1543277615.9,286047002.2,N
1543277635.8,286047005.5,N
1543277655.6,286047005.4,N
1543277675.5,286047005.8,N
1543277695.3,286047006.0,N
1543277715.1,286047003.7,N
1543277735.9,286047004.3,N
1543277755.7,286047002.5,N
1543277775.5,286047000.2,N
1543277795.4,286047002.6,N
1543277815.2,286046999.7,N
1543277835.1,286047000.6,N
1543277836.0,286047000.6,N
1543277855.8,286046997.1,N
1543277875.6,286046999.2,N
1543277895.5,286046998.2,N
1543277915.3,286046998.4,N
1543277935.1,286046997.0,N
1543277955.9,286046998.1,N
1543277975.7,286047002.3,N
1543277995.6,286047001.8,N
1543278015.4,286047001.5,N
1543278035.2,286046999.7,N
1543278055.1,286047001.0,N
1543278056.0,286047001.0,N
1543278075.8,286046999.7,N
1543278095.6,286047000.3,N
1543278115.5,286047002.5,N
1543278135.3,286047002.5,N
1543278155.2,286047000.8,N
1543278175.9,286046997.4,N
1543278195.7,286046996.5,N
1543278215.6,286046999.5,N
1543278235.4,286046996.5,N
1543278255.2,286046997.1,N
1543278275.1,286046997.5,N
1543278276.0,286046997.5,N
1543278295.8,286046998.5,N
1543278315.7,286046997.7,N
1543278335.5,286046997.2,N
1543278355.3,286046997.3,N
1543278375.2,286046997.6,N
1543278395.0,286046995.9,N
1543278395.9,286046995.9,N
1543278415.7,286046995.8,N
1543278435.6,286046994.1,N
1543278455.4,286046993.7,N
1543278475.3,286046993.0,N
1543278495.1,286046993.1,N
1543278496.0,286046993.1,N
1543278515.8,286046991.4,Y
1543278535.7,286046989.0,P
1543278555.5,286046986.5,P
1543278575.3,286046987.4,N
1543278595.2,286046990.3,N
1543278615.0,286046992.0,N
1543278615.9,286046992.0,N
1543278635.8,286046993.8,N
1543278655.6,286046995.0,N
1543278675.4,286046996.5,N
1543278695.3,286046997.1,N
1543278715.1,286046997.9,N
1543278735.8,286046993.6,N
1543278755.7,286046986.3,Y
1543278775.5,286046998.5,P
1543278795.4,286046996.5,N
1543278815.2,286046999.4,N
1543278835.0,286046996.8,N
1543278835.9,286046996.8,N
1543278855.8,286046997.7,N
1543278875.6,286047000.5,N
1543278895.4,286047001.3,N
1543278915.3,286047003.2,N
1543278935.1,286047001.3,N
1543278955.9,286047000.6,N
1543278975.7,286046998.5,N
1543278995.5,286046998.9,N
1543279015.4,286046995.4,N
1543279035.2,286046996.1,N
1543279055.0,286046995.1,N
1543279055.9,286046995.1,N
1543279075.8,286046995.2,N
1543279095.6,286046997.4,N
1543279115.5,286046997.7,N
1543279135.3,286046997.6,N
1543279155.1,286047002.5,N
1543279175.9,286047001.9,N
1543279195.7,286047002.3,N
1543279215.5,286046999.6,N
1543279235.4,286046994.9,N
1543279255.2,286046995.4,N
1543279275.0,286046995.1,N
1543279275.9,286046995.1,N
1543279295.8,286046994.3,N
1543279315.6,286046991.8,Y
1543279335.5,286046996.1,P
1543279355.3,286046993.4,P
1543279375.1,286046997.2,N
1543279395.9,286046995.2,N
1543279415.7,286046998.9,N
1543279435.5,286047000.2,N
1543279455.4,286047002.4,N
1543279475.2,286046999.9,N
1543279495.1,286047000.8,N
1543279496.0,286047000.8,N
1543279515.8,286046998.2,N
1543279535.6,286046998.7,N
1543279555.5,286047000.2,N
1543279575.3,286047001.2,N
1543279595.1,286047002.7,N
1543279615.9,286047003.7,N
1543279635.7,286047002.9,N
1543279655.6,286047004.4,N
1543279675.4,286047003.1,N
1543279695.2,286047006.8,N
1543279715.1,286047005.5,N
1543279716.0,286047005.5,N
1543279735.8,286047003.5,N
1543279755.6,286047012.0,Y
1543279775.5,286047009.5,P
1543279795.3,286047011.6,N
1543279815.2,286047011.2,N
1543279835.9,286047012.4,N
1543279855.7,286047011.7,N
1543279875.6,286047011.3,N
1543279895.4,286047011.9,Y
1543279915.2,286047000.6,P
1543279935.1,286046998.2,N
1543279936.0,286046998.2,N
1543279955.8,286046996.7,N
1543279975.7,286046995.8,N
1543279995.5,286046995.6,N
1543280015.3,286046995.8,N
1543280035.2,286046996.3,N
1543280055.0,286046996.0,N
1543280055.9,286046996.0,N
1543280075.8,286046994.1,N
1543280095.6,286046991.9,N
1543280115.4,286046990.4,N
1543280135.3,286046992.1,N
1543280155.1,286046992.8,N
1543280175.8,286046989.9,N
1543280195.7,286046988.7,N
1543280215.5,286046990.6,N
1543280235.4,286046990.3,N
1543280255.2,286046991.1,N
1543280275.0,286046990.6,N
1543280275.9,286046990.6,N
1543280295.8,286046988.7,N
1543280315.6,286046991.3,N
1543280335.5,286046992.6,N
1543280355.3,286046992.5,N
1543280375.1,286046989.3,N
1543280395.9,286046989.2,N
